📊 Raw Sensor Data
Showing records 52676 to 52700 of 85,303 total
| ID | Distance (ft) | Battery V | Battery A | Int Temp (°F) | Int Humid (%) | Ext Temp (°F) | Solar V | RSSI | SNR | Time Stamp |
|---|---|---|---|---|---|---|---|---|---|---|
| 32640 | 12.9 | 3.74 | 0 | 61 | 35 | 60 | 5.10 | -79 | 8 | 02/17/2025 11:45 AM |
| 32639 | 12.8 | 3.75 | 0 | 59 | 35 | 58 | 5.10 | -79 | 7 | 02/17/2025 11:30 AM |
| 32638 | 12.9 | 3.89 | 0 | 58 | 36 | 57 | 5.10 | -79 | 8 | 02/17/2025 11:15 AM |
| 32637 | 12.8 | 3.75 | 0 | 57 | 35 | 57 | 5.10 | -79 | 8 | 02/17/2025 11:00 AM |
| 32636 | 12.8 | 3.75 | 0 | 55 | 36 | 55 | 5.10 | -81 | 8 | 02/17/2025 10:45 AM |
| 32635 | 12.8 | 4.06 | 0 | 53 | 36 | 54 | 5.10 | -82 | 8 | 02/17/2025 10:30 AM |
| 32634 | 12.8 | 4.06 | 0 | 52 | 36 | 54 | 5.10 | -84 | 8 | 02/17/2025 10:15 AM |
| 32633 | 12.8 | 3.84 | 0 | 51 | 36 | 53 | 5.10 | -84 | 8 | 02/17/2025 10:00 AM |
| 32632 | 12.8 | 3.75 | 0 | 50 | 36 | 51 | 5.10 | -84 | 8 | 02/17/2025 09:45 AM |
| 32631 | 12.8 | 3.76 | 0 | 49 | 36 | 50 | 5.10 | -82 | 8 | 02/17/2025 09:30 AM |
| 32630 | 12.8 | 3.76 | 0 | 48 | 35 | 50 | 5.10 | -82 | 8 | 02/17/2025 09:15 AM |
| 32629 | 12.8 | 3.78 | 0 | 48 | 35 | 49 | 5.10 | -82 | 7 | 02/17/2025 09:00 AM |
| 32628 | 12.8 | 3.99 | 109 | 46 | 35 | 48 | 4.50 | -83 | 8 | 02/17/2025 08:45 AM |
| 32627 | 12.7 | 3.97 | 86 | 45 | 35 | 47 | 4.50 | -84 | 8 | 02/17/2025 08:30 AM |
| 32626 | 12.7 | 3.88 | 77 | 43 | 35 | 44 | 4.50 | -85 | 7 | 02/17/2025 08:15 AM |
| 32625 | 12.7 | 3.85 | 37 | 41 | 35 | 43 | 4.50 | -85 | 8 | 02/17/2025 08:00 AM |
| 32624 | 12.7 | 3.83 | 23 | 39 | 36 | 41 | 4.50 | -86 | 8 | 02/17/2025 07:45 AM |
| 32623 | 12.7 | 3.84 | 0 | 38 | 37 | 40 | 4.50 | -84 | 8 | 02/17/2025 07:30 AM |
| 32622 | 12.7 | 3.66 | 0 | 37 | 37 | 39 | 4.50 | -81 | 9 | 02/17/2025 07:15 AM |
| 32621 | 12.7 | 3.58 | -8 | 36 | 37 | 38 | 4.50 | -84 | 9 | 02/17/2025 07:00 AM |
| 32620 | 12.7 | 3.60 | -7 | 36 | 38 | 38 | 1.60 | -84 | 9 | 02/17/2025 06:45 AM |
| 32619 | 12.7 | 3.74 | -5 | 36 | 37 | 38 | 0.00 | -83 | 8 | 02/17/2025 06:30 AM |
| 32618 | 12.7 | 3.74 | -5 | 36 | 38 | 37 | 0.00 | -84 | 9 | 02/17/2025 06:15 AM |
| 32617 | 12.7 | 3.62 | -5 | 36 | 37 | 37 | 0.00 | -85 | 8 | 02/17/2025 06:00 AM |
| 32616 | 12.7 | 3.74 | -5 | 37 | 38 | 39 | 0.00 | -85 | 9 | 02/17/2025 05:45 AM |